Weather History for KGRI - April, 2014

Change the Weather History Date:

Wednesday, April 30, 2014

  Actual Average Record
Temperature  
Mean Temperature 45 °F 56 °F  
Max Temperature 53 °F 68 °F 93 °F (1992)
Min Temperature 37 °F 44 °F 17 °F (1903)
Degree Days  
Heating Degree Days 20 10  
Month to date heating degree days 396 445  
Since 1 July heating degree days 6085 6002  
Cooling Degree Days 0 1  
Month to date cooling degree days 4 11  
Year to date cooling degree days 4 11  
Moisture  
Dew Point 30 °F    
Average Humidity 59    
Maximum Humidity 82    
Minimum Humidity 35    
Precipitation  
Precipitation 0.00 in 0.11 in 1.15 in (1985)
Month to date precipitation 2.91 2.53  
Year to date precipitation 3.75 5.54  
Snow  
Snow 0.00 in 0.00 in 0.80 in (1994)
Month to date snowfall 1.7 1.5  
Since 1 July snowfall 16.4 29.0  
Snow Depth 0.00 in    
Sea Level Pressure  
Sea Level Pressure 30.04 in    
Wind  
Wind Speed 22 mph (NW)    
Max Wind Speed 36 mph    
Max Gust Speed 45 mph    
Visibility 10 miles    
Events      
T = Trace of Precipitation, MM = Missing Value Source: NWS Daily Summary

Daily Weather History Graph

Daily Weather History Graph

Search for Another Location

Airport or City:

Trip Planner

Search our weather history database for the weather conditions in past years. The results will help you decide how hot, cold, wet, or windy it might be!

Date:

Astronomy

Apr. 30, 2014 Rise Set
Actual Time 6:32 AM CDT 8:28 PM CDT
Civil Twilight 6:02 AM CDT 8:58 PM CDT
Nautical Twilight 5:26 AM CDT 9:35 PM CDT
Astronomical Twilight 4:47 AM CDT 10:14 PM CDT
Moon 7:34 AM CDT (4/30) 10:09 PM CDT (4/30)
Length of Visible Light 14h 55m
Length of Day
13h 56m
New Moon, 2% of the Moon is Illuminated
Apr 30
New Moon
May 6
First Quarter
May 14
Full
May 21
Last Quarter
May 28
New

Hourly Weather History & Observations

Time (CDT) Temp. Windchill Dew Point Humidity Pressure Visibility Wind Dir Wind Speed Gust Speed Precip Events Conditions
12:53 AM 41.0 °F 33.5 °F 34.0 °F 76% 30.01 in 10.0 mi NW 13.8 mph - N/A   Clear
1:53 AM 39.9 °F 31.1 °F 34.0 °F 79% 30.01 in 10.0 mi NW 17.3 mph - N/A   Scattered Clouds
2:53 AM 41.0 °F 31.9 °F 35.1 °F 79% 30.02 in 10.0 mi NW 19.6 mph - N/A   Overcast
3:53 AM 41.0 °F 32.2 °F 34.0 °F 76% 30.02 in 10.0 mi NW 18.4 mph - N/A   Overcast
4:53 AM 39.9 °F 30.5 °F 33.1 °F 77% 30.03 in 10.0 mi NW 19.6 mph 27.6 mph N/A   Overcast
5:53 AM 39.0 °F 28.8 °F 33.1 °F 79% 30.04 in 10.0 mi NW 21.9 mph - N/A   Overcast
6:53 AM 37.9 °F 27.6 °F 32.0 °F 79% 30.05 in 10.0 mi NW 20.7 mph - N/A   Clear
7:53 AM 39.9 °F 29.5 °F 32.0 °F 73% 30.06 in 10.0 mi NW 24.2 mph 33.4 mph N/A   Clear
8:53 AM 43.0 °F 33.8 °F 32.0 °F 65% 30.06 in 10.0 mi NW 23.0 mph 33.4 mph N/A   Clear
9:53 AM 46.4 °F 37.2 °F 28.4 °F 50% 30.04 in 10.0 mi NNW 29.9 mph 41.4 mph N/A   Clear
10:53 AM 48.0 °F - 28.0 °F 46% 30.06 in 10.0 mi NNW 28.8 mph 39.1 mph N/A   Scattered Clouds
11:53 AM 48.9 °F - 28.0 °F 44% 30.06 in 10.0 mi NNW 24.2 mph 42.6 mph N/A   Mostly Cloudy
12:53 PM 48.0 °F - 25.0 °F 41% 30.05 in 10.0 mi NW 26.5 mph 35.7 mph N/A   Mostly Cloudy
1:53 PM 52.0 °F - 25.0 °F 35% 30.03 in 10.0 mi NW 26.5 mph 39.1 mph N/A   Mostly Cloudy
2:53 PM 51.1 °F - 25.0 °F 36% 30.03 in 10.0 mi NNW 27.6 mph 35.7 mph N/A   Overcast
3:53 PM 50.0 °F - 26.1 °F 39% 30.04 in 10.0 mi NW 28.8 mph 34.5 mph N/A   Overcast
4:53 PM 51.1 °F - 25.0 °F 36% 30.02 in 10.0 mi NNW 24.2 mph 38.0 mph N/A   Overcast
5:53 PM 51.1 °F - 25.0 °F 36% 30.03 in 10.0 mi NW 27.6 mph 35.7 mph N/A   Overcast
6:53 PM 50.0 °F - 28.9 °F 44% 30.04 in 10.0 mi North 25.3 mph 31.1 mph N/A   Overcast
7:53 PM 48.0 °F - 30.9 °F 52% 30.05 in 10.0 mi North 21.9 mph - N/A   Overcast
8:53 PM 46.9 °F - 32.0 °F 56% 30.05 in 10.0 mi NNW 16.1 mph - N/A   Overcast
9:53 PM 45.0 °F 38.9 °F 32.0 °F 60% 30.05 in 10.0 mi NNW 12.7 mph - N/A   Scattered Clouds
10:53 PM 46.0 °F 39.3 °F 30.0 °F 54% 30.05 in 10.0 mi NW 16.1 mph 25.3 mph N/A   Scattered Clouds
11:53 PM 45.0 °F 36.0 °F 30.9 °F 58% 30.04 in 10.0 mi NW 25.3 mph 32.2 mph N/A   Partly Cloudy